• Join FlightAware (Why Join?)
  • Login
  • US Flag 
03:56PM EST


 

Airport Tracker/Info


-or-


 

Live Flight TrackerFlight Track Log ✈ UAL3740 ✈ 04-May-2013 ✈ KIAD - KPVD

Flight Track Log - Related Links

Times and Time Zones

All times are in EDT time to prevent confusion due to time zone crossing. See the UAL3740 flight status page for this flight to view local times or setup timezone preferences in your user account.

Time Position Orientation Groundspeed Altitude Reporting Facility
EDT Latitude Longitude Course Direction KTS MPH feet Rate Location/Type
08:37AM 38.9667 -77.5333 322° Northwest 193 222 2,600  Level Potomac TRACON
08:38AM 39.0167 -77.5833 322° Northwest 276 318 4,400 2,520 Climbing Potomac TRACON
08:39AM 39.0833 -77.5500 21° North 260 299 7,800 2,820 Climbing Potomac TRACON
08:40AM 39.1500 -77.5000 30° Northeast 284 327 10,100 720 Climbing Potomac TRACON
08:42AM 39.1497 -77.2750 90° East 308 354 10,100  Level Washington Center
08:43AM 39.1156 -77.1728 113° Southeast 303 349 10,100 1,080 Level Washington Center
08:44AM 39.0817 -77.0650 112° Southeast 308 354 12,300 2,160 Climbing Washington Center
08:45AM 39.0892 -76.9475 85° East 313 360 14,400 2,160 Climbing Washington Center
08:46AM 39.1008 -76.8247 83° East 318 366 16,700 1,800 Climbing Washington Center
08:47AM 39.1125 -76.6992 83° East 333 383 18,100 1,320 Climbing Washington Center
08:48AM 39.1242 -76.5628 84° East 358 412 19,400 1,080 Climbing Washington Center
08:49AM 39.1378 -76.4211 83° East 381 438 20,300 1,020 Climbing Washington Center
08:50AM 39.1511 -76.2714 83° East 404 465 21,500 1,020 Climbing Washington Center
08:51AM 39.1686 -76.1350 81° East 416 479 22,400 720 Climbing Washington Center
08:52AM 39.1836 -75.9797 83° East 428 493 23,000 240 Climbing Washington Center
08:53AM 39.2258 -75.8328 70° East 433 498 23,000 300 Level Washington Center
08:54AM 39.3133 -75.7231 44° Northeast 413 475 23,700 1,020 Climbing Washington Center
08:55AM 39.3989 -75.6131 45° Northeast 422 486 25,100 1,380 Climbing Washington Center
08:56AM 39.4844 -75.5056 44° Northeast 422 486 26,400 1,260 Climbing Washington Center
08:58AM 39.6342 -75.3158 44° Northeast 422 486 28,600 1,140 Climbing New York Center
08:59AM 39.7133 -75.2019 48° Northeast 417 480 29,600 1,140 Climbing New York Center
09:00AM 39.7908 -75.0853 49° Northeast 422 486 30,900 1,140 Climbing New York Center
09:01AM 39.8742 -74.9661 48° Northeast 427 491 32,000 1,020 Climbing New York Center
09:02AM 39.9489 -74.8569 48° Northeast 427 491 33,000 480 Climbing New York Center
09:03AM 40.0156 -74.7414 53° Northeast 432 497 33,000  Level New York Center
09:04AM 40.0725 -74.5928 63° Northeast 438 504 33,000  Level New York Center
09:05AM 40.1272 -74.4439 64° Northeast 443 510 33,000  Level New York Center
09:06AM 40.1842 -74.2919 64° Northeast 455 524 33,000 -780 Level New York Center
09:08AM 40.3144 -73.9586 63° Northeast 454 522 30,600 -1,260 Descending Boston Center
09:09AM 40.3706 -73.8128 63° Northeast 449 517 29,100 -1,500 Descending Boston Center
09:10AM 40.4222 -73.6639 65° Northeast 444 511 27,600 -1,080 Descending Boston Center
09:11AM 40.4758 -73.5206 64° Northeast 444 511 27,000 -300 Descending Boston Center
09:12AM 40.5272 -73.3767 65° Northeast 439 505 27,000 -780 Level Boston Center
09:13AM 40.5803 -73.2325 64° Northeast 433 498 25,500 -1,800 Descending Boston Center
09:14AM 40.6356 -73.0908 63° Northeast 433 498 23,500 -1,740 Descending Boston Center
09:15AM 40.6736 -72.9819 65° Northeast 420 483 22,100 -1,860 Descending Boston Center
09:16AM 40.7408 -72.8072 63° Northeast 415 478 19,800 -2,100 Descending Boston Center
09:17AM 40.7892 -72.6786 64° Northeast 405 466 18,000 -1,620 Descending Boston Center
09:18AM 40.8331 -72.5417 67° East 400 460 16,600 -1,500 Descending Boston Center
09:19AM 40.8792 -72.4153 64° Northeast 394 453 15,100 -1,500 Descending Boston Center
09:20AM 40.9228 -72.2944 64° Northeast 376 433 13,600 -1,560 Descending Boston Center
09:21AM 40.9725 -72.1542 65° Northeast 365 420 11,800 -1,200 Descending Boston Center
09:22AM 41.0139 -72.0331 66° East 359 413 11,000 -840 Descending Boston Center
09:23AM 41.0739 -71.9389 50° Northeast 360 414 10,200 -540 Descending Boston Center
09:24AM 41.1589 -71.8750 30° Northeast 348 400 10,000 -120 Descending Boston Center
09:25AM 41.2419 -71.8133 29° Northeast 340 391 10,000 -600 Level Boston Center
09:26AM 41.3083 -71.7631 30° Northeast 272 313 8,800 -1,620 Descending Boston Center
09:27AM 41.3728 -71.7153 29° Northeast 256 295 6,800 -1,860 Descending Boston Center
09:28AM 41.4328 -71.6675 31° Northeast 246 283 5,100 -1,320 Descending Boston Center
09:29AM 41.4847 -71.6283 29° Northeast 227 261 4,200 -1,200 Descending Boston Center
09:30AM 41.5406 -71.5831 31° Northeast 232 267 2,700 -1,080 Descending Boston Center
09:31AM 41.5903 -71.5436 31° Northeast 207 238 2,100 -300 Descending Boston Center
09:32AM 41.6317 -71.5042 35° Northeast 164 189 2,100 -420 Level Boston Center
09:33AM 41.6628 -71.4786 32° Northeast 131 151 1,300 -780 Descending Boston Center
09:34AM 41.6936 -71.4503 34° Northeast 137 158 600 -720 Descending Boston Center
09:36AM 41.7167 -71.4167 31° Northeast  Level FlightAware Approximate